Location: Dodgeville
(42.9600°N, 90.1300°W)
Time: 11:41:02
(UTC-05:00)

Amateur Radio Satellites - All Passes

Search period start: 23 May 2017 11:11
Search period end: 24 May 2017 11:11
Location: Dodgeville, 42.9600°N, 90.1300°W

Satellite Date Start Highest point End Downlink Frequencies (MHz)
Time Altitude Azimuth
TIGRISAT 23 May 11:11:23 11:14:49 24° 266° (W) 11:18:18 435.000
NO-84 23 May 11:12:37 11:16:51 50° 326° (NW) 11:20:53 435.350 FM
YUBILEINY 23 May 11:18:42 11:24:49 20° 61° (ENE) 11:30:52 435.215
EO-79 23 May 11:20:38 11:24:22 32° 69° (ENE) 11:28:07 145.935-145.965
ESTCUBE 1 23 May 11:22:28 11:24:47 14° 90° (E) 11:27:05 437.505/2401.250
PRISM 23 May 11:25:52 11:27:01 11° 270° (W) 11:28:11 437.425
EO-88 23 May 11:27:46 11:31:14 39° 288° (WNW) 11:34:40 145.990 - 145.960
AIST 2D 23 May 11:34:52 11:38:22 85° 258° (WSW) 11:41:56 435.315
FO-29 23 May 11:39:58 11:43:24 18° 269° (W) 11:46:51 435.910
UNISAT 6 23 May 11:45:17 11:45:48 10° 272° (W) 11:46:18 437.425
DELFI C3 23 May 12:03:45 12:05:47 14° 296° (WNW) 12:07:50 145.870
Oscar 19 23 May 12:04:34 12:07:02 14° 58° (ENE) 12:09:31 437.125/150
NANOSAT C BR1 23 May 12:07:52 12:12:01 82° 255° (WSW) 12:16:14 145.865
POLYITAN 1 23 May 12:08:47 12:12:57 72° 258° (WSW) 12:17:09 437.675
RS-15 23 May 12:16:24 12:28:43 88° 237° (WSW) 12:40:21 29.354- 29.394
QB50P2 23 May 12:17:20 12:21:25 52° 260° (W) 12:25:34 145.880/145.840
DUCHIFAT 1 23 May 12:20:43 12:24:51 65° 258° (WSW) 12:29:01 145.980
LO-87 23 May 12:23:21 12:26:52 63° 285° (WNW) 12:30:22 145.935 - 145.965
VELOX 1 23 May 12:34:01 12:37:16 20° 94° (E) 12:40:28 145.980
Gurwin Techsat 1B 23 May 12:49:59 12:53:54 21° 62° (ENE) 12:57:50 435.225
NO-84 23 May 12:52:17 12:55:11 18° 345° (NNW) 12:57:58 435.350 FM
BUGSAT 1 23 May 12:54:07 12:58:07 89° 257° (WSW) 13:02:09 437.445
SPROUT 23 May 12:56:05 13:00:01 35° 97° (E) 13:03:54 437.525
EO-79 23 May 12:56:56 13:00:10 22° 266° (W) 13:03:27 145.935-145.965
ESTCUBE 1 23 May 12:57:31 13:01:58 60° 287° (WNW) 13:06:23 437.505/2401.250
O/OREOS (USA 219) 23 May 13:12:06 13:13:33 11° 48° (NE) 13:14:59 437.305
YUBILEINY 23 May 13:14:04 13:22:58 88° 83° (E) 13:31:49 435.215
DX 1 23 May 13:21:35 13:25:01 23° 95° (E) 13:28:26 434.975-435.025
UKube-1 23 May 13:22:11 13:24:49 16° 92° (E) 13:27:27 .
Oscar 19 23 May 13:40:24 13:45:36 88° 252° (WSW) 13:50:51 437.125/150
AO-85 23 May 13:55:39 13:59:23 35° 50° (NE) 14:03:14 145.980
BEESAT 3 23 May 14:00:18 14:02:47 16° 40° (NE) 14:05:15 437.485
50 SAT 23 May 14:04:31 14:07:55 63° 284° (WNW) 14:11:15 437.505
VELOX 1 23 May 14:09:45 14:13:50 39° 290° (WNW) 14:17:54 145.980
AO-7 23 May 14:25:45 14:33:12 39° 59° (ENE) 14:40:40 .
Gurwin Techsat 1B 23 May 14:28:15 14:33:26 55° 259° (W) 14:38:41 435.225
RS-15 23 May 14:30:42 14:39:23 24° 261° (W) 14:47:49 29.354- 29.394
NO-84 23 May 14:31:45 14:34:02 15° 6° (N) 14:36:14 435.350 FM
SPROUT 23 May 14:32:25 14:35:42 22° 294° (WNW) 14:38:59 437.525
ITAMSAT 1 23 May 14:34:59 14:39:19 28° 65° (ENE) 14:43:40 435.822/435.867
BEESAT 23 May 14:44:23 14:45:49 11° 89° (E) 14:47:14 436.000
O/OREOS (USA 219) 23 May 14:49:09 14:53:43 85° 68° (ENE) 14:58:12 437.305
UKube-1 23 May 14:56:57 15:01:06 48° 289° (WNW) 15:05:13 .
DX 1 23 May 14:57:21 15:01:15 33° 291° (WNW) 15:05:08 434.975-435.025
BEESAT 2 23 May 15:08:37 15:12:03 25° 46° (NE) 15:15:26 435.950
YUBILEINY 23 May 15:12:46 15:18:32 20° 283° (WNW) 15:24:18 435.215
Oscar 19 23 May 15:24:32 15:25:38 11° 273° (W) 15:26:45 437.125/150
AO-85 23 May 15:36:20 15:39:36 23° 246° (WSW) 15:43:00 145.980
BEESAT 3 23 May 15:36:49 15:40:50 71° 239° (WSW) 15:44:47 437.485
ITUPSAT 1 23 May 15:43:27 15:48:04 44° 99° (E) 15:52:39 437.325
NO-84 23 May 16:09:13 16:12:38 31° 28° (NNE) 16:15:46 435.350 FM
ITAMSAT 1 23 May 16:13:49 16:18:36 38° 262° (W) 16:23:27 435.822/435.867
AO-7 23 May 16:17:43 16:25:43 52° 258° (WSW) 16:33:48 .
BEESAT 23 May 16:19:21 16:24:10 80° 286° (WNW) 16:28:57 436.000
MOZHAYETS 4 23 May 16:33:05 16:37:46 84° 102° (ESE) 16:42:25
DOVE 4 23 May 16:35:57 16:38:06 13° 63° (ENE) 16:40:12 437.250
BEESAT 2 23 May 16:46:09 16:49:52 35° 244° (WSW) 16:53:33 435.950
XW-2D 23 May 17:04:49 17:06:10 12° 63° (ENE) 17:07:30 145.860 - 145.880
CUBESAT XI-V 23 May 17:09:46 17:14:06 37° 97° (E) 17:18:21 437.345
XW-2B 23 May 17:12:01 17:13:56 14° 64° (ENE) 17:15:52 145.730 - 145.750
ITUPSAT 1 23 May 17:21:55 17:25:35 22° 296° (WNW) 17:29:16 437.325
XW-2C 23 May 17:24:35 17:27:18 19° 67° (ENE) 17:30:02 145.795 - 145.815
XW-2F 23 May 17:26:17 17:29:00 19° 67° (ENE) 17:31:43 145.980 - 146.000
NUDT-PHONESAT 23 May 17:36:16 17:38:57 19° 67° (ENE) 17:41:40 437.300
KAITUO 1B 23 May 17:39:35 17:42:31 22° 68° (ENE) 17:45:27 145.475/437.950
CUTE-I 23 May 17:43:37 17:48:25 36° 67° (ENE) 17:53:15 437.470
NO-84 23 May 17:46:54 17:50:13 36° 228° (SW) 17:53:16 435.350 FM
HO-68 23 May 17:48:12 17:52:58 20° 53° (NE) 17:57:45 435.675
KKS-1 23 May 17:51:51 17:56:19 84° 104° (ESE) 18:00:45 437.445
LilacSat-2 23 May 17:57:34 18:01:14 47° 73° (ENE) 18:04:58 437.200
BEESAT 23 May 18:00:22 18:01:07 10° 303° (WNW) 18:01:52 436.000
DOVE 4 23 May 18:10:36 18:15:19 70° 258° (WSW) 18:19:47 437.250
MOZHAYETS 4 23 May 18:12:32 18:14:14 12° 300° (WNW) 18:15:56
CUTE 1.7 + AOD 2 23 May 18:20:28 18:22:38 14° 63° (ENE) 18:24:48 437.475
STARS 23 May 18:32:38 18:37:02 82° 283° (WNW) 18:41:24 437.465
XW-2D 23 May 18:36:06 18:39:51 57° 260° (W) 18:43:38 145.860 - 145.880
XW-2B 23 May 18:44:02 18:47:43 47° 261° (W) 18:51:26 145.730 - 145.750
CUBESAT XI-V 23 May 18:47:31 18:51:15 24° 294° (WNW) 18:54:58 437.345
PCSat 23 May 18:49:40 18:51:00 11° 101° (ESE) 18:52:21 145.827
XW-2C 23 May 18:57:50 19:01:16 32° 263° (W) 19:04:44 145.795 - 145.815
XW-2F 23 May 18:59:29 19:02:54 32° 263° (W) 19:06:22 145.980 - 146.000
XW-2A 23 May 19:00:21 19:03:09 25° 70° (ENE) 19:05:58 145.665 - 145.685
NUDT-PHONESAT 23 May 19:09:23 19:12:40 29° 264° (W) 19:15:58 437.300
KAITUO 1B 23 May 19:13:10 19:16:22 27° 264° (W) 19:19:38 145.475/437.950
SEEDS 23 May 19:14:29 19:18:15 32° 70° (ENE) 19:22:03 437.485
CUTE-I 23 May 19:23:52 19:28:29 30° 264° (W) 19:33:08 437.470
KKS-1 23 May 19:31:00 19:32:11 11° 301° (WNW) 19:33:22 437.445
HO-68 23 May 19:32:33 19:39:44 89° 70° (ENE) 19:46:59 435.675
LilacSat-2 23 May 19:34:03 19:35:48 13° 270° (W) 19:37:33 437.200
AO-73 23 May 19:48:26 19:51:17 18° 64° (ENE) 19:54:11 145.935
CUTE 1.7 + AOD 2 23 May 19:53:43 19:57:57 61° 260° (W) 20:02:13 437.475
CUBEBUG 2 23 May 19:56:34 20:00:40 67° 74° (ENE) 20:04:51 437.445
ZACube-1 23 May 19:59:38 20:03:05 25° 67° (ENE) 20:06:37 437.345
UWE-3 23 May 20:14:01 20:18:07 63° 74° (ENE) 20:22:20 435.000/436.395/437.385
AAUSAT CUBESAT 2 23 May 20:23:54 20:28:06 89° 76° (ENE) 20:32:19 437.432
STRAND 1 23 May 20:24:26 20:29:34 67° 103° (ESE) 20:34:41 437.568
PCSat 23 May 20:28:05 20:33:30 82° 118° (ESE) 20:38:57 145.827
XW-2A 23 May 20:33:36 20:35:54 17° 266° (W) 20:38:13 145.665 - 145.685
SEEDS 23 May 20:50:34 20:53:57 23° 266° (W) 20:57:23 437.485
Oscar 11 23 May 21:00:12 21:04:32 85° 74° (ENE) 21:08:55 .
DELFI C3 23 May 21:13:41 21:17:14 32° 70° (ENE) 21:20:48 145.870
AO-73 23 May 21:23:12 21:27:11 42° 262° (W) 21:31:16 145.935
HO-68 23 May 21:23:59 21:28:21 17° 271° (W) 21:32:44 435.675
ZACube-1 23 May 21:35:38 21:39:17 28° 265° (W) 21:43:00 437.345
CUBEBUG 2 23 May 21:37:17 21:37:47 10° 272° (W) 21:38:17 437.445
M-CUBED/EXP-1 PRIME 23 May 21:52:18 21:55:39 76° 289° (WNW) 21:58:53 437.505
UWE-3 23 May 21:53:46 21:55:02 11° 271° (W) 21:56:20 435.000/436.395/437.385
ISS 23 May 21:53:53 21:57:00 40° 140° (SE) 22:00:07 437.550
Tancredo 1 23 May 21:54:12 21:57:14 63° 143° (SE) 22:00:17 437.200
UNISAT 6 23 May 21:56:03 21:58:40 15° 91° (E) 22:01:18 437.425
STRAND 1 23 May 22:04:56 22:08:12 17° 299° (WNW) 22:11:27 437.568
EO-88 23 May 22:05:41 22:09:21 85° 257° (WSW) 22:13:02 145.990 - 145.960
PCSat 23 May 22:13:41 22:17:33 19° 319° (NW) 22:21:28 145.827
ESTCUBE 1 23 May 22:22:55 22:25:35 16° 62° (ENE) 22:28:16 437.505/2401.250
SO-50 23 May 22:33:58 22:37:04 18° 111° (ESE) 22:40:09 436.795
FO-29 23 May 22:43:34 22:49:41 50° 100° (E) 22:56:31 435.910
DELFI C3 23 May 22:49:03 22:52:04 20° 266° (W) 22:55:05 145.870
LO-87 23 May 22:59:52 23:03:20 54° 75° (ENE) 23:06:49 145.935 - 145.965
TIGRISAT 23 May 23:00:22 23:04:55 63° 101° (E) 23:09:31 435.000
PRISM 23 May 23:02:42 23:06:48 87° 284° (WNW) 23:10:50 437.425
ISS 23 May 23:30:31 23:33:32 33° 338° (NNW) 23:36:35 437.550
Tancredo 1 23 May 23:30:35 23:33:12 24° 342° (NNW) 23:35:49 437.200
UNISAT 6 23 May 23:31:12 23:35:42 58° 286° (WNW) 23:40:15 437.425
VELOX 1 23 May 23:32:08 23:35:27 21° 65° (ENE) 23:38:46 145.980
SPROUT 23 May 23:50:14 23:53:55 30° 69° (ENE) 23:57:36 437.525
NANOSAT C BR1 23 May 23:52:24 23:54:51 15° 91° (E) 23:57:19 145.865
POLYITAN 1 23 May 23:53:33 23:56:22 17° 92° (E) 23:59:12 437.675
ESTCUBE 1 23 May 23:57:25 00:01:54 60° 259° (W) 00:06:25 437.505/2401.250
QB50P2 24 May 00:01:35 00:04:58 23° 94° (E) 00:08:21 145.880/145.840
DUCHIFAT 1 24 May 00:04:29 00:07:26 18° 93° (E) 00:10:23 145.980
SO-50 24 May 00:12:37 00:17:07 55° 308° (NW) 00:21:35 436.795
UKube-1 24 May 00:17:43 00:20:23 16° 63° (ENE) 00:23:04 .
DX 1 24 May 00:17:57 00:21:24 23° 66° (ENE) 00:24:50 434.975-435.025
YUBILEINY 24 May 00:22:45 00:28:38 21° 78° (ENE) 00:34:30 435.215
FO-29 24 May 00:29:12 00:34:32 31° 295° (WNW) 00:40:26 435.910
AIST 2D 24 May 00:32:04 00:35:39 77° 282° (WNW) 00:39:12 435.315
BUGSAT 1 24 May 00:36:35 00:38:15 12° 91° (E) 00:39:55 437.445
50 SAT 24 May 00:37:18 00:40:38 48° 73° (ENE) 00:43:59 437.505
RS-15 24 May 00:38:24 00:41:17 11° 91° (E) 00:44:11 29.354- 29.394
TIGRISAT 24 May 00:38:31 00:41:06 15° 298° (WNW) 00:43:42 435.000
EO-79 24 May 00:39:19 00:43:30 54° 100° (E) 00:47:40 145.935-145.965
VELOX 1 24 May 01:07:30 01:11:38 39° 261° (W) 01:15:48 145.980
Tancredo 1 24 May 01:07:42 01:09:44 16° 1° (N) 01:11:46 437.200
ISS 24 May 01:08:23 01:10:44 18° 357° (N) 01:13:05 437.550
SPROUT 24 May 01:26:20 01:29:48 24° 265° (W) 01:33:18 437.525
NANOSAT C BR1 24 May 01:26:44 01:30:50 49° 288° (WNW) 01:34:56 145.865
POLYITAN 1 24 May 01:28:18 01:32:21 43° 289° (WNW) 01:36:24 437.675
QB50P2 24 May 01:36:59 01:40:47 32° 291° (WNW) 01:44:36 145.880/145.840
DUCHIFAT 1 24 May 01:39:18 01:43:15 40° 289° (WNW) 01:47:13 145.980
BEESAT 24 May 01:50:59 01:53:52 16° 61° (ENE) 01:56:44 436.000
Oscar 19 24 May 01:51:28 01:56:00 30° 96° (E) 02:00:29 437.125/150
UKube-1 24 May 01:51:49 01:56:00 51° 259° (W) 02:00:14 .
DX 1 24 May 01:53:25 01:57:23 34° 262° (W) 02:01:23 434.975-435.025
SO-50 24 May 01:57:08 01:58:35 11° 329° (NNW) 02:00:01 436.795
MOZHAYETS 4 24 May 02:02:48 02:03:37 10° 59° (ENE) 02:04:26
BUGSAT 1 24 May 02:09:54 02:13:57 58° 286° (WNW) 02:18:01 437.445
YUBILEINY 24 May 02:15:31 02:24:15 84° 278° (W) 02:33:05 435.215
EO-79 24 May 02:16:23 02:18:49 15° 297° (WNW) 02:21:16 145.935-145.965
RS-15 24 May 02:39:10 02:50:47 58° 113° (ESE) 03:02:43 29.354- 29.394
Gurwin Techsat 1B 24 May 02:43:21 02:48:35 55° 100° (E) 02:53:47 435.225
Tancredo 1 24 May 02:43:27 02:46:13 29° 22° (NNE) 02:48:57 437.200
ISS 24 May 02:45:11 02:48:01 26° 18° (NNE) 02:50:50 437.550
ITUPSAT 1 24 May 02:50:48 02:55:27 57° 72° (ENE) 03:00:10 437.325
BEESAT 24 May 03:26:25 03:31:07 63° 258° (WSW) 03:35:52 436.000
Oscar 19 24 May 03:30:40 03:35:19 35° 293° (WNW) 03:39:56 437.125/150
PCSat 24 May 03:32:55 03:36:15 16° 38° (NE) 03:39:34 145.827
MOZHAYETS 4 24 May 03:35:25 03:40:00 87° 72° (ENE) 03:44:39
STARS 24 May 03:57:22 03:58:22 11° 59° (ENE) 03:59:23 437.465
CUBESAT XI-V 24 May 04:13:33 04:17:56 40° 70° (ENE) 04:22:21 437.345
YUBILEINY 24 May 04:16:47 04:22:30 19° 300° (WNW) 04:28:18 435.215
AO-7 24 May 04:17:49 04:25:57 52° 102° (ESE) 04:34:02 .
Tancredo 1 24 May 04:19:07 04:22:03 42° 219° (SW) 04:24:58 437.200
ISS 24 May 04:21:29 04:24:45 68° 217° (SW) 04:28:00 437.550
Gurwin Techsat 1B 24 May 04:24:12 04:28:07 21° 298° (WNW) 04:32:02 435.225
ITAMSAT 1 24 May 04:25:06 04:30:19 69° 103° (ESE) 04:35:31 435.822/435.867
ITUPSAT 1 24 May 04:30:44 04:33:38 16° 269° (W) 04:36:34 437.325
KKS-1 24 May 04:50:22 04:54:48 86° 77° (ENE) 04:59:15 437.445
RS-15 24 May 04:51:45 05:03:35 52° 317° (NW) 05:15:38 29.354- 29.394
O/OREOS (USA 219) 24 May 05:01:55 05:06:32 85° 111° (ESE) 05:11:09 437.305
PCSat 24 May 05:15:06 05:20:34 78° 59° (ENE) 05:25:59 145.827
BEESAT 3 24 May 05:28:49 05:31:00 14° 110° (ESE) 05:33:13 437.485
STARS 24 May 05:29:40 05:34:02 84° 254° (WSW) 05:38:25 437.465
AO-85 24 May 05:50:42 05:54:53 83° 125° (SE) 05:58:54 145.980
CUBESAT XI-V 24 May 05:51:47 05:55:26 22° 267° (W) 05:59:07 437.345
CUTE-I 24 May 06:01:17 06:03:38 13° 89° (E) 06:05:57 437.470
STRAND 1 24 May 06:05:04 06:07:44 14° 59° (ENE) 06:10:25 437.568
ITAMSAT 1 24 May 06:05:55 06:09:13 17° 300° (WNW) 06:12:31 435.822/435.867
DOVE 4 24 May 06:08:42 06:12:11 25° 95° (E) 06:15:42 437.250
XW-2D 24 May 06:09:02 06:11:04 14° 91° (E) 06:13:05 145.860 - 145.880
AO-7 24 May 06:10:57 06:18:29 39° 301° (WNW) 06:26:00 .
XW-2B 24 May 06:16:31 06:18:59 16° 92° (E) 06:21:27 145.730 - 145.750
XW-2C 24 May 06:29:30 06:32:38 23° 95° (E) 06:35:45 145.795 - 145.815
XW-2F 24 May 06:30:44 06:33:51 23° 95° (E) 06:36:55 145.980 - 146.000
BEESAT 2 24 May 06:37:58 06:41:26 29° 115° (ESE) 06:44:56 435.950
NUDT-PHONESAT 24 May 06:38:48 06:41:51 23° 95° (E) 06:44:52 437.300
KAITUO 1B 24 May 06:43:08 06:46:22 26° 95° (E) 06:49:35 145.475/437.950
O/OREOS (USA 219) 24 May 06:44:27 06:46:35 13° 311° (NW) 06:48:43 437.305
PCSat 24 May 07:00:16 07:03:15 15° 256° (WSW) 07:06:13 145.827
HO-68 24 May 07:01:19 07:05:24 16° 88° (E) 07:09:26 435.675
SO-50 24 May 07:03:02 07:06:44 24° 43° (NE) 07:10:26 436.795
LilacSat-2 24 May 07:03:47 07:07:40 65° 100° (E) 07:11:31 437.200
BEESAT 3 24 May 07:04:15 07:08:08 53° 307° (NW) 07:12:05 437.485
M-CUBED/EXP-1 PRIME 24 May 07:05:45 07:08:16 16° 60° (ENE) 07:10:40 437.505
RS-15 24 May 07:09:57 07:19:57 27° 349° (N) 07:29:54 29.354- 29.394
AO-85 24 May 07:33:43 07:35:47 14° 321° (NW) 07:37:50 145.980
CUTE 1.7 + AOD 2 24 May 07:38:15 07:41:33 21° 93° (E) 07:44:49 437.475
CUTE-I 24 May 07:38:56 07:44:18 82° 286° (WNW) 07:49:39 437.470
STRAND 1 24 May 07:41:09 07:46:15 80° 258° (WSW) 07:51:23 437.568
XW-2D 24 May 07:41:48 07:45:29 43° 287° (WNW) 07:49:08 145.860 - 145.880
DOVE 4 24 May 07:46:21 07:49:51 27° 291° (WNW) 07:53:23 437.250
CUBEBUG 2 24 May 07:47:18 07:49:49 14° 90° (E) 07:52:21 437.445
XW-2B 24 May 07:49:45 07:53:19 36° 289° (WNW) 07:56:52 145.730 - 145.750
XW-2A 24 May 07:53:35 07:56:26 24° 96° (E) 07:59:16 145.665 - 145.685
XW-2C 24 May 08:03:32 08:06:47 26° 291° (WNW) 08:09:59 145.795 - 145.815
UWE-3 24 May 08:03:56 08:06:07 13° 90° (E) 08:08:17 435.000/436.395/437.385
XW-2F 24 May 08:04:42 08:07:56 26° 291° (WNW) 08:11:08 145.980 - 146.000
AAUSAT CUBESAT 2 24 May 08:06:48 08:08:43 13° 90° (E) 08:10:38 437.432
NUDT-PHONESAT 24 May 08:12:34 08:15:42 25° 291° (WNW) 08:18:49 437.300
BEESAT 2 24 May 08:15:38 08:19:09 29° 313° (NW) 08:22:42 435.950
KAITUO 1B 24 May 08:17:15 08:20:16 23° 292° (WNW) 08:23:16 145.475/437.950
SEEDS 24 May 08:32:19 08:36:30 54° 100° (E) 08:40:35 437.485
M-CUBED/EXP-1 PRIME 24 May 08:38:07 08:42:22 54° 254° (WSW) 08:46:20 437.505
LilacSat-2 24 May 08:40:22 08:41:24 11° 298° (WNW) 08:42:26 437.200
SO-50 24 May 08:43:04 08:47:25 47° 241° (WSW) 08:51:45 436.795
HO-68 24 May 08:46:48 08:54:05 87° 109° (ESE) 09:01:17 435.675
Oscar 11 24 May 08:47:50 08:50:20 15° 91° (E) 08:52:49 .
UNISAT 6 24 May 08:56:29 08:58:44 14° 62° (ENE) 09:01:01 437.425
FO-29 24 May 08:59:35 09:03:12 19° 61° (ENE) 09:06:51 435.910
NO-84 24 May 09:03:53 09:07:22 23° 128° (SE) 09:10:47 435.350 FM
AO-73 24 May 09:09:47 09:13:55 33° 97° (E) 09:18:02 145.935
CUTE 1.7 + AOD 2 24 May 09:13:34 09:17:28 34° 290° (WNW) 09:21:18 437.475
CUTE-I 24 May 09:21:23 09:23:30 12° 303° (WNW) 09:25:37 437.470
ZACube-1 24 May 09:21:54 09:26:19 49° 99° (E) 09:30:45 437.345
CUBEBUG 2 24 May 09:22:16 09:26:45 59° 286° (WNW) 09:31:20 437.445
XW-2A 24 May 09:26:28 09:29:03 20° 291° (WNW) 09:31:36 145.665 - 145.685
RS-15 24 May 09:26:55 09:37:40 32° 24° (NNE) 09:48:03 29.354- 29.394
UWE-3 24 May 09:38:25 09:42:57 65° 285° (WNW) 09:47:32 435.000/436.395/437.385
AAUSAT CUBESAT 2 24 May 09:40:28 09:44:31 54° 286° (WNW) 09:48:32 437.432
PRISM 24 May 09:52:15 09:56:23 73° 75° (ENE) 10:00:31 437.425
TIGRISAT 24 May 09:59:50 10:04:00 58° 73° (ENE) 10:08:15 435.000
SEEDS 24 May 10:09:21 10:11:43 15° 297° (WNW) 10:14:04 437.485
Oscar 11 24 May 10:22:31 10:26:46 52° 287° (WNW) 10:30:59 .
DELFI C3 24 May 10:23:59 10:27:47 44° 99° (E) 10:31:32 145.870
UNISAT 6 24 May 10:30:45 10:34:57 58° 260° (W) 10:39:14 437.425
YUBILEINY 24 May 10:32:56 10:33:54 10° 50° (NE) 10:34:52 435.215
HO-68 24 May 10:35:54 10:40:54 21° 306° (NW) 10:45:54 435.675
NO-84 24 May 10:40:26 10:44:45 60° 324° (NW) 10:48:53 435.350 FM
FO-29 24 May 10:42:48 10:47:52 54° 260° (W) 10:53:02 435.910
NANOSAT C BR1 24 May 10:46:04 10:48:03 13° 62° (ENE) 10:50:02 145.865
AO-73 24 May 10:46:15 10:49:58 26° 293° (WNW) 10:53:44 145.935
POLYITAN 1 24 May 10:47:32 10:49:56 15° 63° (ENE) 10:52:22 437.675
QB50P2 24 May 10:55:19 10:58:21 20° 65° (ENE) 11:01:23 145.880/145.840
DUCHIFAT 1 24 May 10:57:40 11:00:11 16° 63° (ENE) 11:02:41 145.980
ZACube-1 24 May 10:59:07 11:02:13 18° 295° (WNW) 11:05:20 437.345
